[[{"header":{"parameterUnit":"m.s-1","parameterCategory":1,"la1":30.2991,"la2":30.254,"lo1":-89.0895,"lo2":-89.0444,"dy":0.0017,"dx":0.0017,"nx":28,"ny":28,"refTime":"2023-04-03T21:00:00:Z","depth":0,"parameterNumber":2,"parameterNumberName":"U-component_of_WINDS"},"data":[0,0,0,0,0,0,0,0,0,0,0,0,0,0,0,0,0,0,0,0,0,0,0,0,0,0,0,0,0,0,0,0,0,0,0,0,0,0,0,0,0,0,0,0,0,0,0,0,0,0,0,0,0,0,0,0,0,0,-3.4094,-3.4094,0,-3.4121,-3.4122,-3.4122,-3.4114,-3.4114,-3.4113,-3.4113,-3.4138,-3.4139,-3.414,0,0,0,0,0,0,0,0,0,0,0,0,0,-3.4033,-3.4034,-3.4094,-3.4094,-3.4095,-3.4121,-3.4122,-3.4122,-3.4114,-3.4114,-3.4113,-3.4112,-3.4138,-3.4139,-3.414,0,0,0,0,0,0,0,0,0,0,0,0,0,-3.4059,-3.4034,-3.4094,-3.4094,-3.4094,-3.4121,-3.4122,-3.4122,-3.4114,-3.4114,-3.4113,-3.4112,-3.4137,-3.4139,-3.4141,-3.4168,0,0,-3.4146,-3.4147,0,0,0,0,0,0,0,0,-3.4058,-3.4062,-3.4094,-3.4094,-3.4095,-3.4114,-3.4109,-3.4138,-3.4115,-3.4107,-3.4113,-3.4112,-3.413,-3.4133,-3.414,-3.4169,-3.4171,-3.4146,-3.4147,-3.4148,-3.4149,0,0,0,0,0,0,0,-3.4056,-3.406,-3.4105,-3.4094,-3.4095,-3.4092,-3.4095,-3.4115,-3.4123,-3.4107,-3.4107,-3.411,-3.413,-3.4138,-3.414,-3.4171,-3.4146,-3.4148,-3.4149,-3.415,-3.4223,-3.4224,0,0,0,0,0,0,-3.4054,-3.4059,-3.4104,-3.4106,-3.4074,-3.4094,-3.4097,-3.4108,-3.4123,-3.4124,-3.4111,-3.411,-3.4135,-3.4138,-3.4141,-3.4173,-3.4148,-3.415,-3.4151,-3.4223,-3.4224,-3.4225,0,0,0,0,0,0,-3.4053,-3.4058,-3.4103,-3.4082,-3.4088,-3.4096,-3.4108,-3.4109,-3.4117,-3.4125,-3.4126,-3.4117,-3.4135,-3.4138,-3.4161,-3.4174,-3.4151,-3.4152,-3.4222,-3.4223,-3.4224,-3.4238,0,0,0,0,0,0,-3.4051,-3.4058,-3.4069,-3.4083,-3.4089,-3.4124,-3.4109,-3.411,-3.412,-3.4119,-3.4131,-3.4133,-3.4134,-3.4159,-3.4163,-3.4176,-3.4154,-3.422,-3.4222,-3.4224,-3.4236,-3.424,-3.4242,0,0,0,0,0,-3.4049,-3.4072,-3.407,-3.4075,-3.4103,-3.4124,-3.4128,-3.413,-3.4121,-3.4132,-3.4137,-3.4132,-3.4172,-3.4161,-3.4166,-3.4179,-3.422,-3.4222,-3.4224,-3.4235,-3.4239,-3.4242,0,0,0,0,0,0,-3.4059,-3.4073,-3.4071,-3.4099,-3.4111,-3.4123,-3.4137,-3.4134,-3.4148,-3.4146,-3.4147,-3.415,-3.4173,-3.4179,-3.4166,-3.4206,-3.4194,-3.4198,-3.4201,-3.4205,-3.4208,-3.4205,-3.4155,0,0,0,0,0,-3.4064,-3.4081,-3.4093,-3.4116,-3.4122,-3.4128,-3.4138,-3.4138,-3.415,-3.4155,-3.4162,-3.4172,-3.4187,-3.4197,-3.4211,-3.4238,-3.424,-3.4249,-3.4252,-3.4255,-3.4257,-3.427,-3.4274,-3.4231,-3.4231,-3.4231,0,0,-3.4075,-3.4085,-3.4096,-3.4118,-3.4127,-3.4144,-3.4132,-3.4151,-3.4162,-3.4157,-3.4179,-3.4185,-3.4197,-3.4221,-3.4233,-3.4227,-3.4269,-3.4257,-3.4259,-3.426,-3.4272,-3.4277,-3.428,-3.4233,-3.4232,-3.4232,0,0,-3.4103,-3.4114,-3.4134,-3.4143,-3.4157,-3.4161,-3.4166,-3.4179,-3.4183,-3.4205,-3.4201,-3.4215,-3.4241,-3.4249,-3.4257,-3.4288,-3.4284,-3.4293,-3.4308,-3.4321,-3.4324,-3.4327,-3.4337,-3.434,-3.4295,-3.4296,-3.4296,0,-3.4115,-3.4141,-3.4144,-3.4162,-3.4172,-3.4169,-3.4188,-3.4197,-3.4214,-3.422,-3.4214,-3.4246,-3.4254,-3.428,-3.4288,-3.4295,-3.4299,-3.4291,-3.4324,-3.4327,-3.4329,-3.4339,-3.4342,-3.4296,-3.4296,-3.4296,-3.4296,0,-3.4153,-3.4171,-3.4185,-3.4203,-3.4214,-3.4233,-3.4238,-3.4249,-3.4249,-3.4253,-3.4276,-3.4285,-3.4301,-3.4307,-3.4307,-3.4333,-3.4329,-3.4323,-3.4311,-3.4334,-3.4343,-3.4347,-3.4298,-3.4297,-3.4297,-3.4297,0,0,-3.4187,-3.4207,-3.4212,-3.4219,-3.4235,-3.4248,-3.4266,-3.4282,-3.4291,-3.4303,-3.4318,-3.434,-3.4335,-3.4343,-3.4344,-3.4356,-3.4378,-3.4348,-3.4349,-3.4352,-3.4406,-3.4409,-3.4413,-3.4376,-3.4377,-3.4378,-3.4404,0,-3.4215,-3.4248,-3.4252,-3.4281,-3.4296,-3.4294,-3.431,-3.432,-3.4325,-3.4338,-3.4344,-3.4359,-3.4351,-3.4356,-3.4368,-3.4373,-3.4389,-3.4372,-3.4388,-3.4389,-3.4383,-3.4418,-3.4421,-3.4446,-3.4408,-3.4408,-3.4409,0,-3.4253,-3.4267,-3.4297,-3.431,-3.4316,-3.4331,-3.4345,-3.4358,-3.437,-3.4373,-3.4383,-3.4382,-3.44,-3.4388,-3.4412,-3.44,-3.4407,-3.4411,-3.4412,-3.4412,-3.4399,-3.4417,-3.4454,-3.4457,-3.4414,-3.4414,-3.4414,0,-3.4272,-3.4299,-3.432,-3.4327,-3.4343,-3.4352,-3.4359,-3.437,-3.4379,-3.4392,-3.4398,-3.4412,-3.442,-3.4431,-3.4433,-3.4425,-3.4457,-3.4446,-3.4458,-3.4458,-3.4463,-3.4463,-3.45,-3.4471,-3.4471,-3.4471,-3.4471,0,-3.4302,-3.432,-3.4329,-3.4342,-3.4362,-3.4366,-3.4386,-3.4392,-3.4402,-3.4415,-3.4414,-3.4427,-3.4431,-3.4443,-3.4446,-3.4464,-3.4468,-3.447,-3.447,-3.4469,-3.4469,-3.4472,-3.447,-3.4472,-3.4472,-3.4471,-3.4471,0,-3.4326,-3.4333,-3.4356,-3.4369,-3.4373,-3.4387,-3.4398,-3.441,-3.4415,-3.4432,-3.4436,-3.4444,-3.4459,-3.4463,-3.4481,-3.4483,-3.4504,-3.4504,-3.45,-3.45,-3.4511,-3.4509,-3.4551,-3.4556,-3.4525,-3.4525,-3.4526,0,-3.4344,-3.4358,-3.4373,-3.4383,-3.439,-3.4405,-3.4415,-3.4419,-3.4429,-3.4443,-3.4453,-3.4468,-3.448,-3.4505,-3.4511,-3.4525,-3.4523,-3.4537,-3.4525,-3.4523,-3.4521,-3.452,-3.4521,-3.4538,-3.4539,-3.4539,-3.4539,0,-3.4375,-3.4378,-3.4392,-3.4407,-3.4418,-3.443,-3.4442,-3.4449,-3.4455,-3.4466,-3.4482,-3.4492,-3.451,-3.4525,-3.4539,-3.4545,-3.4542,-3.4543,-3.4546,-3.4545,-3.4542,-3.4542,-3.4504,-3.4542,-3.4541,-3.4541,-3.4541,-3.4541,-3.4395,-3.4407,-3.442,-3.4435,-3.4445,-3.4455,-3.4467,-3.4474,-3.4487,-3.4503,-3.4505,-3.4522,-3.4533,-3.4551,-3.4558,-3.457,-3.4566,-3.4571,-3.4572,-3.4573,-3.4573,-3.4541,-3.4573,-3.4573,-3.4573,-3.4573,-3.4573,0,-3.4424,-3.4432,-3.4447,-3.4463,-3.4475,-3.4474,-3.4486,-3.4496,-3.4511,-3.4522,-3.4534,-3.4552,-3.4566,-3.4574,-3.4588,-3.4596,-3.4595,-3.4599,-3.4598,-3.4599,-3.4577,-3.4572,-3.46,-3.46,-3.46,-3.46,-3.4599,-3.4599,-3.4441,-3.4461,-3.4465,-3.4489,-3.4497,-3.4514,-3.4521,-3.453,-3.4539,-3.4559,-3.4571,-3.4576,-3.4585,-3.46,-3.4613,-3.4615,-3.4619,-3.4623,-3.4624,-3.4603,-3.4601,-3.4598,-3.4593,-3.4625,-3.4625,-3.4645,-3.4645,-3.4645]},{"header":{"parameterUnit":"m.s-1","parameterCategory":1,"la1":30.2991,"la2":30.254,"lo1":-89.0895,"lo2":-89.0444,"dy":0.0017,"dx":0.0017,"nx":28,"ny":28,"refTime":"2023-04-03T21:00:00:Z","depth":0,"parameterNumber":3,"parameterNumberName":"V-component_of_WINDS"},"data":[0,0,0,0,0,0,0,0,0,0,0,0,0,0,0,0,0,0,0,0,0,0,0,0,0,0,0,0,0,0,0,0,0,0,0,0,0,0,0,0,0,0,0,0,0,0,0,0,0,0,0,0,0,0,0,0,0,0,3.9965,3.9965,0,3.9986,3.9986,3.9986,3.9997,3.9997,3.9997,3.9997,4.0015,4.0015,4.0016,0,0,0,0,0,0,0,0,0,0,0,0,0,3.9932,3.9933,3.9965,3.9965,3.9965,3.9986,3.9986,3.9986,3.9997,3.9997,3.9997,3.9997,4.0015,4.0015,4.0016,0,0,0,0,0,0,0,0,0,0,0,0,0,3.9949,3.9933,3.9965,3.9973,3.9974,3.9986,3.9986,3.9986,3.9997,3.9997,3.9997,3.9997,4.0015,4.0015,4.0016,4.002,0,0,4.0018,4.0018,0,0,0,0,0,0,0,0,3.9948,3.995,3.9972,3.9973,3.9974,3.9989,3.9981,3.9997,3.9997,3.9988,3.9997,3.9997,4.0006,4.0007,4.0011,4.002,4.0021,4.0018,4.0019,4.0019,4.0019,0,0,0,0,0,0,0,3.9947,3.9949,3.9973,3.9972,3.9973,3.9976,3.9978,3.9984,3.9997,3.9989,3.999,3.9992,4.0007,4.0011,4.0012,4.0021,4.0018,4.0019,4.0019,4.0019,4.0038,4.0038,0,0,0,0,0,0,3.9945,3.9948,3.9972,3.9974,3.9961,3.9976,3.9979,3.9984,3.9997,3.9999,3.9992,3.9993,4.0009,4.0011,4.0012,4.002,4.0019,4.0019,4.002,4.0038,4.0038,4.0038,0,0,0,0,0,0,3.9944,3.9947,3.9971,3.9961,3.9965,3.9977,3.9982,3.9984,3.9988,3.9999,4.0001,3.9994,4.0009,4.0011,4.0019,4.0021,4.002,4.002,4.0038,4.0038,4.0038,4.0033,0,0,0,0,0,0,3.9943,3.9947,3.9948,3.9961,3.9965,3.9978,3.9982,3.9985,3.999,3.9991,4.0001,4.0003,4.001,4.0018,4.0019,4.0021,4.0021,4.0038,4.0038,4.0038,4.0033,4.0033,4.0033,0,0,0,0,0,3.9942,3.9944,3.9948,3.9951,3.9967,3.9978,3.998,3.9988,3.999,3.9992,3.9999,4.0003,4.002,4.0018,4.002,4.0023,4.0038,4.0038,4.0038,4.0033,4.0033,4.0033,0,0,0,0,0,0,3.9928,3.9946,3.995,3.9957,3.9966,3.998,3.9982,3.9987,3.9995,3.9995,4.0004,4.0007,4.0014,4.0019,4.0017,4.0029,4.0029,4.003,4.0025,4.0025,4.0025,4.0024,4.0021,0,0,0,0,0,3.9926,3.9934,3.9949,3.9953,3.9958,3.9969,3.9974,3.998,3.9989,3.9993,4.0,4.0008,4.0016,4.0021,4.0028,4.0034,4.0038,4.0037,4.0037,4.0037,4.0037,4.0044,4.0044,4.0039,4.0039,4.0039,0,0,3.9921,3.9932,3.9936,3.9951,3.9958,3.9966,3.9972,3.9979,3.9985,3.9993,4.0002,4.0008,4.0018,4.0026,4.0029,4.003,4.004,4.0037,4.0037,4.0037,4.0044,4.0045,4.0045,4.0039,4.0039,4.0039,0,0,3.9917,3.9926,3.9932,3.9941,3.9953,3.9962,3.9963,3.9977,3.9982,3.9991,3.9999,4.0006,4.0018,4.0026,4.0031,4.0034,4.0039,4.0036,4.0036,4.0042,4.0043,4.0043,4.0046,4.0047,4.0037,4.0037,4.0037,0,3.9909,3.9922,3.9934,3.9942,3.9949,3.9959,3.9966,3.9974,3.9987,3.9992,3.9993,4.0011,4.0018,4.003,4.0031,4.0034,4.0037,4.0035,4.0042,4.0042,4.0043,4.0046,4.0047,4.0036,4.0036,4.0036,4.0037,0,3.9913,3.9923,3.9926,3.9942,3.995,3.9957,3.997,3.9976,3.9982,3.999,4.0001,4.0011,4.0022,4.0025,4.0029,4.0037,4.0038,4.004,4.0041,4.0043,4.0046,4.0047,4.0036,4.0036,4.0036,4.0036,0,0,3.9898,3.9924,3.9925,3.9934,3.9951,3.9958,3.9967,3.998,3.9986,3.9996,4.0004,4.0016,4.002,4.0026,4.0032,4.0038,4.0043,4.004,4.0041,4.0042,4.0055,4.0054,4.0056,4.0047,4.0047,4.0047,4.0055,0,3.9898,3.9916,3.9928,3.9941,3.9951,3.9962,3.997,3.9982,3.999,4.0,4.0009,4.0019,4.0021,4.0026,4.0032,4.0041,4.0046,4.0041,4.0055,4.0055,4.0053,4.0057,4.0055,4.0062,4.0056,4.0057,4.0057,0,3.9899,3.9912,3.9926,3.9946,3.995,3.9957,3.9972,3.9981,3.9995,4.0001,4.001,4.0018,4.0028,4.0029,4.0045,4.0041,4.0047,4.0053,4.0054,4.0056,4.0056,4.006,4.0065,4.0066,4.0058,4.0058,4.0058,0,3.9889,3.991,3.9923,3.993,3.9952,3.9957,3.9966,3.998,3.9989,4.0001,4.0007,4.002,4.0027,4.0037,4.0048,4.0047,4.0063,4.0064,4.0069,4.0069,4.0072,4.0072,4.0079,4.0075,4.0075,4.0075,4.0075,0,3.9888,3.9896,3.9919,3.9927,3.9938,3.9952,3.9963,3.9973,3.9986,3.9996,4.0006,4.0015,4.0029,4.004,4.0049,4.0062,4.0064,4.007,4.0073,4.007,4.007,4.0075,4.0075,4.0075,4.0075,4.0075,4.0075,0,3.9878,3.9893,3.9908,3.993,3.9936,3.9943,3.9961,3.9969,3.998,3.9993,3.9997,4.0013,4.0027,4.004,4.0057,4.0063,4.0077,4.0079,4.0073,4.0075,4.008,4.008,4.0091,4.0095,4.0087,4.0087,4.0087,0,3.9876,3.9884,3.9908,3.9917,3.9927,3.994,3.9949,3.9965,3.9974,3.9993,3.9999,4.0015,4.0028,4.005,4.0063,4.0077,4.0081,4.0084,4.0083,4.0081,4.0083,4.0083,4.0085,4.0084,4.0084,4.0084,4.0084,0,3.9872,3.9881,3.9895,3.9913,3.9925,3.9939,3.9954,3.996,3.9978,3.9988,4.0004,4.0015,4.0035,4.0051,4.0067,4.0077,4.0084,4.0084,4.0087,4.0084,4.0081,4.0085,4.0075,4.0084,4.0084,4.0084,4.0084,4.0084,3.9868,3.9877,3.9896,3.9913,3.9926,3.994,3.995,3.9964,3.9978,3.9997,4.0005,4.0022,4.0039,4.0062,4.0072,4.0086,4.0087,4.0089,4.009,4.0091,4.0092,4.0079,4.0088,4.0088,4.0088,4.0088,4.0088,0,3.9866,3.988,3.9895,3.9917,3.9931,3.9939,3.9956,3.9967,3.9982,3.9998,4.0012,4.0032,4.0048,4.0064,4.0081,4.0089,4.0093,4.0093,4.0093,4.0096,4.0089,4.0086,4.009,4.009,4.009,4.009,4.009,4.009,3.9867,3.9883,3.9895,3.9919,3.9932,3.9951,3.996,3.9974,3.9987,4.001,4.0025,4.0036,4.0052,4.0072,4.0087,4.0092,4.0098,4.0098,4.0103,4.0096,4.0096,4.0095,4.0093,4.0099,4.0099,4.011,4.011,4.011]}]]